Meteo Giornale » Osservazioni meteo Finlandia » Vaasa
ore: 23:20 - Osservazioni Meteo Vaasa
Lat. 63° 3' N Lon. 21° 46' E Alt. 4 metri s.l.m.
16 °C
Coperto
Temp. 24 Ore
14 °C
18 °C
Sud-Ovest
7.4 Km/h
Dew point 15 °C
Umidità 93 %
Visibilità 10 Km
Il sole sorge alle ore 06:16
Il sole tramonta alle ore 20:50
| Data e Ora | Cielo e Fenomeni | T °C | DP °C | Um. % | Pres. hPa | Vis. km | Vento km/h | |
|---|---|---|---|---|---|---|---|---|
| Oggi h: 23:20 | Coperto | 16 | 15 | 93 | 1004 | 10 | SO 7.4 | |
| Oggi h: 22:50 | Coperto | 16 | 15 | 93 | 1004 | 10 | SO 7.4 | |
| Oggi h: 22:20 | Coperto | 15 | 15 | 100 | 1004 | 10 | N 5.5 | |
| Oggi h: 21:50 | Molto Nuvoloso | 15 | 15 | 100 | 1003 | 10 | O/SO 7.4 | |
| Oggi h: 21:20 | Sereno | 15 | 15 | 100 | 1003 | 0.8 | N 3.7 | |
| Oggi h: 20:50 | Sereno | 16 | 16 | 100 | 1003 | 10 | N 5.5 | |
| Oggi h: 20:20 | Poco Nuvoloso | 17 | 16 | 93 | 1003 | 10 | N 5.5 | |
| Oggi h: 19:50 | Sereno | 17 | 16 | 93 | 1003 | 10 | N 3.7 | |
| Oggi h: 19:20 | Poco Nuvoloso | 18 | 16 | 88 | 1003 | 10 | N 5.5 | |
| Oggi h: 18:50 | Nuvoloso | 18 | 16 | 88 | 1003 | 10 | N 5.5 | |
| Oggi h: 18:20 | Coperto | 18 | 16 | 88 | 1003 | 10 | N 3.7 | |
| Oggi h: 17:50 | Coperto | 18 | 16 | 88 | 1003 | 10 | N 5.5 | |
| Oggi h: 17:20 | Coperto | 18 | 16 | 88 | 1003 | 10 | N 5.5 | |
| Oggi h: 16:50 | Coperto | 18 | 16 | 88 | 1003 | 10 | N 5.5 | |
| Oggi h: 16:20 | Coperto | 17 | 16 | 93 | 1002 | 10 | N 5.5 | |
| Oggi h: 15:50 | Pioggia | 18 | 16 | 88 | 1003 | 10 | N 3.7 | |
| Oggi h: 15:20 | Pioggia | 17 | 16 | 93 | 1003 | 10 | N 5.5 | |
| Oggi h: 14:50 | Pioggia | 17 | 16 | 93 | 1002 | 10 | N 3.7 | |
| Oggi h: 14:20 | Coperto | 17 | 16 | 93 | 1003 | 10 | N 3.7 | |
| Oggi h: 13:50 | Coperto | 17 | 16 | 93 | 1002 | 10 | N 3.7 | |
| Oggi h: 13:20 | Pioggia | 17 | 16 | 93 | 1002 | 10 | N 5.5 | |
| Oggi h: 12:50 | Pioggia | 16 | 16 | 100 | 1002 | 6 | N 5.5 | |
| Oggi h: 12:20 | Pioggia | 16 | 16 | 100 | 1002 | 1 | N 5.5 | |
| Oggi h: 11:50 | Pioggia | 16 | 15 | 93 | 1002 | 10 | E/NE 7.4 | |
| Oggi h: 11:20 | Pioggia | 16 | 16 | 100 | 1003 | 10 | E/NE 7.4 | |
| Oggi h: 10:50 | Pioggia | 15 | 15 | 100 | 1003 | 10 | N 5.5 | |
| Oggi h: 10:20 | Pioggia | 15 | 15 | 100 | 1003 | 10 | E 7.4 | |
| Oggi h: 09:50 | Coperto | 15 | 15 | 100 | 1003 | 10 | N 5.5 | |
| Oggi h: 09:20 | Molto Nuvoloso | 15 | 14 | 93 | 1003 | 10 | E 7.4 | |
| Oggi h: 08:50 | Poco Nuvoloso | 15 | 14 | 93 | 1003 | 10 | E 7.4 | |
| Oggi h: 08:20 | Sereno | 15 | 14 | 93 | 1003 | 10 | N 5.5 | |
| Oggi h: 07:50 | Poco Nuvoloso | 14 | 14 | 100 | 1003 | 10 | N 5.5 | |
| Oggi h: 07:20 | Nuvoloso | 14 | 14 | 100 | 1003 | 10 | N 5.5 | |
| Oggi h: 06:50 | Nebbia | 14 | 14 | 100 | 1003 | 0.6 | N 5.5 | |
| Oggi h: 06:20 | Nebbia | 14 | 14 | 100 | 1003 | 0.35 | N 3.7 | |
| Oggi h: 05:50 | Molto Nuvoloso | 14 | 14 | 100 | 1003 | 10 | SE 7.4 | |
| Oggi h: 05:20 | Coperto | 15 | 14 | 93 | 1003 | 10 | S/SE 7.4 | |
| Oggi h: 04:50 | Molto Nuvoloso | 15 | 15 | 100 | 1003 | 10 | S/SE 7.4 | |
| Oggi h: 04:20 | Pioggia | 15 | 15 | 100 | 1004 | 10 | S 9.3 | |
| Oggi h: 03:50 | Pioggia | 15 | 15 | 100 | 1003 | 9 | S 13 | |
| Oggi h: 03:20 | Pioggia | 15 | 14 | 93 | 1004 | 10 | S 11.1 | |
| Oggi h: 02:50 | Poco Nuvoloso | 15 | 14 | 93 | 1004 | 10 | S 11.1 | |
| Oggi h: 02:20 | Nuvoloso | 15 | 14 | 93 | 1004 | 10 | S 11.1 | |
| Oggi h: 01:50 | Molto Nuvoloso | 15 | 14 | 93 | 1004 | 10 | S 14.8 | |
| Oggi h: 01:20 | Molto Nuvoloso | 15 | 14 | 93 | 1004 | 10 | S 13 | |
| Oggi h: 00:50 | Molto Nuvoloso | 15 | 14 | 93 | 1004 | 10 | S 11.1 | |
| Oggi h: 00:20 | Molto Nuvoloso | 15 | 14 | 93 | 1004 | 10 | S 11.1 | |
| Ieri h: 23:50 | Nuvoloso | 15 | 14 | 93 | 1004 | 10 | S 11.1 | |



